Time,TemperatureF,DewpointF,PressureIn,WindDirection,WindDirectionDegrees,WindSpeedMPH,WindSpeedGustMPH,Humidity,HourlyPrecipIn,Conditions,Clouds,dailyrainin,SoftwareType,DateUTC
2013-03-04 00:00:00,32.6,25.9,29.55,WSW,244,2.0,9.0,76,0.00,,CLR,0.00,VWS V14.01,2013-03-04 05:00:00,
2013-03-04 00:05:00,32.6,25.9,29.55,NNW,341,1.0,5.0,76,0.00,,CLR,0.00,VWS V14.01,2013-03-04 05:05:00,
2013-03-04 00:10:00,32.6,25.9,29.55,West,271,1.0,7.0,76,0.00,,CLR,0.00,VWS V14.01,2013-03-04 05:10:00,
2013-03-04 00:15:00,32.5,25.8,29.55,SW,224,1.0,4.0,76,0.00,,CLR,0.00,VWS V14.01,2013-03-04 05:15:00,
2013-03-04 00:20:00,32.5,25.8,29.56,SW,227,0.0,4.0,76,0.00,,CLR,0.00,VWS V14.01,2013-03-04 05:20:00,
2013-03-04 00:25:00,32.4,25.7,29.55,SW,224,1.0,4.0,76,0.00,,CLR,0.00,VWS V14.01,2013-03-04 05:25:00,
2013-03-04 00:30:00,32.3,25.9,29.56,North,8,1.0,5.0,77,0.00,,CLR,0.00,VWS V14.01,2013-03-04 05:30:00,
2013-03-04 00:35:00,32.3,25.9,29.55,WSW,252,2.0,5.0,77,0.00,,CLR,0.00,VWS V14.01,2013-03-04 05:35:00,
2013-03-04 00:40:00,32.2,25.8,29.55,SW,231,1.0,5.0,77,0.00,,CLR,0.00,VWS V14.01,2013-03-04 05:40:00,
2013-03-04 00:45:00,32.1,25.7,29.55,WNW,290,2.0,6.0,77,0.00,,CLR,0.00,VWS V14.01,2013-03-04 05:45:00,
2013-03-04 00:50:00,32.1,25.7,29.55,WNW,288,2.0,6.0,77,0.00,,CLR,0.00,VWS V14.01,2013-03-04 05:50:00,
2013-03-04 00:55:00,32.0,25.6,29.55,SW,225,1.0,4.0,77,0.00,,CLR,0.00,VWS V14.01,2013-03-04 05:55:00,
2013-03-04 01:00:00,31.9,25.5,29.55,NW,312,1.0,4.0,77,0.00,,CLR,0.00,VWS V14.01,2013-03-04 06:00:00,
2013-03-04 01:05:00,31.8,25.7,29.55,WSW,239,5.0,5.0,78,0.00,,CLR,0.00,VWS V14.01,2013-03-04 06:05:00,
2013-03-04 01:10:00,31.7,25.6,29.56,West,269,4.0,4.0,78,0.00,,CLR,0.00,VWS V14.01,2013-03-04 06:10:00,
2013-03-04 01:15:00,31.6,25.5,29.56,NNW,345,2.0,5.0,78,0.00,,CLR,0.00,VWS V14.01,2013-03-04 06:15:00,
2013-03-04 01:20:00,31.6,25.5,29.56,SW,219,4.0,4.0,78,0.00,,CLR,0.00,VWS V14.01,2013-03-04 06:20:00,
2013-03-04 01:25:00,31.4,25.4,29.56,West,274,1.0,4.0,78,0.00,,CLR,0.00,VWS V14.01,2013-03-04 06:25:00,
2013-03-04 01:30:00,31.4,25.4,29.56,NNW,329,4.0,4.0,78,0.00,,CLR,0.00,VWS V14.01,2013-03-04 06:30:00,
2013-03-04 01:35:00,31.3,25.2,29.56,SSW,193,5.0,6.0,78,0.00,,CLR,0.00,VWS V14.01,2013-03-04 06:35:00,
2013-03-04 01:40:00,31.3,25.2,29.56,West,271,3.0,6.0,78,0.00,,CLR,0.00,VWS V14.01,2013-03-04 06:40:00,
2013-03-04 01:45:00,31.2,25.1,29.56,WSW,257,2.0,6.0,78,0.00,,CLR,0.00,VWS V14.01,2013-03-04 06:45:00,
2013-03-04 01:50:00,31.2,25.1,29.56,West,269,2.0,6.0,78,0.00,,CLR,0.00,VWS V14.01,2013-03-04 06:50:00,
2013-03-04 01:55:00,31.1,25.4,29.56,WSW,243,2.0,6.0,79,0.00,,CLR,0.00,VWS V14.01,2013-03-04 06:55:00,
2013-03-04 02:00:00,30.9,25.2,29.56,WSW,242,5.0,5.0,79,0.00,,CLR,0.00,VWS V14.01,2013-03-04 07:00:00,
2013-03-04 02:05:00,30.9,25.2,29.56,West,269,2.0,6.0,79,0.00,,CLR,0.00,VWS V14.01,2013-03-04 07:05:00,
2013-03-04 02:10:00,30.8,25.1,29.56,WNW,300,2.0,5.0,79,0.00,,CLR,0.00,VWS V14.01,2013-03-04 07:10:00,
2013-03-04 02:15:00,30.8,25.1,29.56,WNW,294,1.0,3.0,79,0.00,,CLR,0.00,VWS V14.01,2013-03-04 07:15:00,
2013-03-04 02:20:00,30.7,25.0,29.56,WNW,291,1.0,4.0,79,0.00,,CLR,0.00,VWS V14.01,2013-03-04 07:20:00,
2013-03-04 02:25:00,30.7,25.0,29.56,NW,321,3.0,3.0,79,0.00,,CLR,0.00,VWS V14.01,2013-03-04 07:25:00,
2013-03-04 02:30:00,30.7,25.0,29.55,WNW,301,0.0,6.0,79,0.00,,CLR,0.00,VWS V14.01,2013-03-04 07:30:00,
2013-03-04 02:35:00,30.8,25.1,29.56,WSW,240,1.0,6.0,79,0.00,,CLR,0.00,VWS V14.01,2013-03-04 07:35:00,
2013-03-04 02:40:00,30.8,25.1,29.56,West,266,6.0,8.0,79,0.00,,CLR,0.00,VWS V14.01,2013-03-04 07:40:00,
2013-03-04 02:45:00,30.8,25.1,29.55,NW,321,2.0,5.0,79,0.00,,CLR,0.00,VWS V14.01,2013-03-04 07:45:00,
2013-03-04 02:50:00,30.8,25.1,29.55,NW,308,2.0,7.0,79,0.00,,CLR,0.00,VWS V14.01,2013-03-04 07:50:00,
2013-03-04 02:55:00,30.8,25.1,29.55,North,8,4.0,8.0,79,0.00,,CLR,0.00,VWS V14.01,2013-03-04 07:55:00,
2013-03-04 03:00:00,30.8,24.8,29.55,WNW,296,5.0,5.0,78,0.00,,CLR,0.00,VWS V14.01,2013-03-04 08:00:00,
2013-03-04 03:05:00,30.9,25.2,29.55,NNW,337,1.0,5.0,79,0.00,,CLR,0.00,VWS V14.01,2013-03-04 08:05:00,
2013-03-04 03:10:00,30.8,25.1,29.55,East,98,1.0,2.0,79,0.00,,CLR,0.00,VWS V14.01,2013-03-04 08:10:00,
2013-03-04 03:15:00,30.8,24.8,29.55,NW,313,2.0,5.0,78,0.00,,CLR,0.00,VWS V14.01,2013-03-04 08:15:00,
2013-03-04 03:20:00,30.8,24.8,29.55,SW,235,1.0,5.0,78,0.00,,CLR,0.00,VWS V14.01,2013-03-04 08:20:00,
2013-03-04 03:25:00,30.7,24.7,29.56,NNE,28,2.0,8.0,78,0.00,,CLR,0.00,VWS V14.01,2013-03-04 08:25:00,
2013-03-04 03:30:00,30.6,24.9,29.56,WNW,283,5.0,9.0,79,0.00,,CLR,0.00,VWS V14.01,2013-03-04 08:30:00,
2013-03-04 03:35:00,30.5,24.8,29.56,WSW,252,2.0,8.0,79,0.00,,CLR,0.00,VWS V14.01,2013-03-04 08:35:00,
2013-03-04 03:40:00,30.3,24.6,29.56,WNW,287,3.0,11.0,79,0.00,,CLR,0.00,VWS V14.01,2013-03-04 08:40:00,
2013-03-04 03:45:00,30.2,24.5,29.56,ENE,57,2.0,6.0,79,0.00,,CLR,0.00,VWS V14.01,2013-03-04 08:45:00,
2013-03-04 03:50:00,30.1,24.4,29.56,West,260,5.0,5.0,79,0.00,,CLR,0.00,VWS V14.01,2013-03-04 08:50:00,
2013-03-04 03:55:00,30.0,24.3,29.56,ESE,102,1.0,5.0,79,0.00,,CLR,0.00,VWS V14.01,2013-03-04 08:55:00,
2013-03-04 04:00:00,30.0,24.6,29.56,West,270,1.0,5.0,80,0.00,,CLR,0.00,VWS V14.01,2013-03-04 09:00:00,
2013-03-04 04:05:00,29.8,24.4,29.56,WNW,301,3.0,4.0,80,0.00,,CLR,0.00,VWS V14.01,2013-03-04 09:05:00,
2013-03-04 04:10:00,29.8,24.4,29.56,NW,307,4.0,5.0,80,0.00,,CLR,0.00,VWS V14.01,2013-03-04 09:10:00,
2013-03-04 04:15:00,29.9,24.5,29.56,WNW,288,3.0,4.0,80,0.00,,CLR,0.00,VWS V14.01,2013-03-04 09:15:00,
2013-03-04 04:20:00,29.9,24.5,29.56,WSW,248,0.0,4.0,80,0.00,,CLR,0.00,VWS V14.01,2013-03-04 09:20:00,
2013-03-04 04:25:00,29.9,24.2,29.56,SW,227,2.0,8.0,79,0.00,,CLR,0.00,VWS V14.01,2013-03-04 09:25:00,
2013-03-04 04:30:00,30.0,24.3,29.56,NE,35,3.0,5.0,79,0.00,,CLR,0.00,VWS V14.01,2013-03-04 09:30:00,
2013-03-04 04:35:00,30.0,24.3,29.56,WNW,288,3.0,5.0,79,0.00,,CLR,0.00,VWS V14.01,2013-03-04 09:35:00,
2013-03-04 04:40:00,29.9,24.2,29.56,NNW,336,1.0,6.0,79,0.00,,CLR,0.00,VWS V14.01,2013-03-04 09:40:00,
2013-03-04 04:45:00,29.9,24.2,29.57,West,281,1.0,6.0,79,0.00,,CLR,0.00,VWS V14.01,2013-03-04 09:45:00,
2013-03-04 04:50:00,29.8,23.8,29.57,West,266,1.0,4.0,78,0.00,,CLR,0.00,VWS V14.01,2013-03-04 09:50:00,
2013-03-04 04:55:00,29.7,23.7,29.57,West,261,5.0,6.0,78,0.00,,CLR,0.00,VWS V14.01,2013-03-04 09:55:00,
2013-03-04 05:00:00,29.6,23.6,29.57,West,271,2.0,4.0,78,0.00,,CLR,0.00,VWS V14.01,2013-03-04 10:00:00,
2013-03-04 05:05:00,29.6,23.6,29.57,SSE,158,2.0,7.0,78,0.00,,CLR,0.00,VWS V14.01,2013-03-04 10:05:00,
2013-03-04 05:10:00,29.6,23.6,29.57,West,272,2.0,4.0,78,0.00,,CLR,0.00,VWS V14.01,2013-03-04 10:10:00,
2013-03-04 05:15:00,29.6,23.3,29.57,SW,215,1.0,7.0,77,0.00,,CLR,0.00,VWS V14.01,2013-03-04 10:15:00,
2013-03-04 05:20:00,29.5,23.5,29.57,SW,224,1.0,6.0,78,0.00,,CLR,0.00,VWS V14.01,2013-03-04 10:20:00,
2013-03-04 05:25:00,29.5,23.2,29.57,NNE,18,2.0,5.0,77,0.00,,CLR,0.00,VWS V14.01,2013-03-04 10:25:00,
2013-03-04 05:30:00,29.4,23.1,29.57,WSW,257,1.0,6.0,77,0.00,,CLR,0.00,VWS V14.01,2013-03-04 10:30:00,
2013-03-04 05:35:00,29.3,22.7,29.57,WSW,252,1.0,7.0,76,0.00,,CLR,0.00,VWS V14.01,2013-03-04 10:35:00,
2013-03-04 05:40:00,29.3,22.7,29.57,NNW,338,1.0,8.0,76,0.00,,CLR,0.00,VWS V14.01,2013-03-04 10:40:00,
2013-03-04 05:45:00,29.3,22.7,29.57,West,266,2.0,8.0,76,0.00,,CLR,0.00,VWS V14.01,2013-03-04 10:45:00,
2013-03-04 05:50:00,29.2,22.6,29.57,SW,225,5.0,6.0,76,0.00,,CLR,0.00,VWS V14.01,2013-03-04 10:50:00,
2013-03-04 05:55:00,29.1,22.5,29.57,West,259,2.0,4.0,76,0.00,,CLR,0.00,VWS V14.01,2013-03-04 10:55:00,
2013-03-04 06:00:00,29.0,22.4,29.57,NNE,30,4.0,8.0,76,0.00,,CLR,0.00,VWS V14.01,2013-03-04 11:00:00,
2013-03-04 06:05:00,28.9,22.3,29.57,SSW,211,2.0,7.0,76,0.00,,CLR,0.00,VWS V14.01,2013-03-04 11:05:00,
2013-03-04 06:10:00,28.8,22.2,29.57,NW,307,6.0,6.0,76,0.00,,CLR,0.00,VWS V14.01,2013-03-04 11:10:00,
2013-03-04 06:15:00,28.8,21.9,29.57,NNW,344,3.0,10.0,75,0.00,,CLR,0.00,VWS V14.01,2013-03-04 11:15:00,
2013-03-04 06:20:00,28.8,21.9,29.57,NE,37,7.0,11.0,75,0.00,,CLR,0.00,VWS V14.01,2013-03-04 11:20:00,
2013-03-04 06:25:00,28.8,21.9,29.58,West,273,2.0,9.0,75,0.00,,CLR,0.00,VWS V14.01,2013-03-04 11:25:00,
2013-03-04 06:30:00,28.9,22.0,29.58,SW,215,2.0,6.0,75,0.00,,CLR,0.00,VWS V14.01,2013-03-04 11:30:00,
2013-03-04 06:35:00,29.0,22.1,29.58,SE,136,2.0,10.0,75,0.00,,CLR,0.00,VWS V14.01,2013-03-04 11:35:00,
2013-03-04 06:40:00,29.2,22.3,29.58,SW,233,1.0,4.0,75,0.00,,CLR,0.00,VWS V14.01,2013-03-04 11:40:00,
2013-03-04 06:45:00,29.2,22.0,29.58,West,279,3.0,5.0,74,0.00,,CLR,0.00,VWS V14.01,2013-03-04 11:45:00,
2013-03-04 06:50:00,29.1,21.9,29.58,West,276,4.0,6.0,74,0.00,,CLR,0.00,VWS V14.01,2013-03-04 11:50:00,
2013-03-04 06:55:00,29.0,21.8,29.58,WNW,296,6.0,7.0,74,0.00,,CLR,0.00,VWS V14.01,2013-03-04 11:55:00,
2013-03-04 07:00:00,29.1,21.9,29.58,West,277,2.0,11.0,74,0.00,,CLR,0.00,VWS V14.01,2013-03-04 12:00:00,
2013-03-04 07:05:00,29.5,22.2,29.58,West,266,3.0,4.0,74,0.00,,CLR,0.00,VWS V14.01,2013-03-04 12:05:00,
2013-03-04 07:10:00,29.7,21.8,29.58,West,270,3.0,8.0,72,0.00,,CLR,0.00,VWS V14.01,2013-03-04 12:10:00,
2013-03-04 07:15:00,29.8,21.9,29.58,WSW,248,4.0,12.0,72,0.00,,CLR,0.00,VWS V14.01,2013-03-04 12:15:00,
2013-03-04 07:20:00,30.0,22.1,29.58,WNW,288,6.0,6.0,72,0.00,,CLR,0.00,VWS V14.01,2013-03-04 12:20:00,
2013-03-04 07:25:00,29.8,21.6,29.58,NNW,333,1.0,7.0,71,0.00,,CLR,0.00,VWS V14.01,2013-03-04 12:25:00,
2013-03-04 07:30:00,29.7,21.8,29.58,WSW,239,3.0,7.0,72,0.00,,CLR,0.00,VWS V14.01,2013-03-04 12:30:00,
2013-03-04 07:35:00,29.8,21.6,29.59,WNW,300,4.0,8.0,71,0.00,,CLR,0.00,VWS V14.01,2013-03-04 12:35:00,
2013-03-04 07:40:00,29.8,21.6,29.59,NW,308,3.0,7.0,71,0.00,,CLR,0.00,VWS V14.01,2013-03-04 12:40:00,
2013-03-04 07:45:00,30.1,21.9,29.59,WNW,285,5.0,11.0,71,0.00,,CLR,0.00,VWS V14.01,2013-03-04 12:45:00,
2013-03-04 07:50:00,30.4,21.8,29.58,SW,235,4.0,11.0,70,0.00,,CLR,0.00,VWS V14.01,2013-03-04 12:50:00,
2013-03-04 07:55:00,30.7,21.8,29.58,WSW,250,6.0,8.0,69,0.00,,CLR,0.00,VWS V14.01,2013-03-04 12:55:00,
2013-03-04 08:00:00,30.9,21.9,29.58,WSW,254,1.0,10.0,69,0.00,,CLR,0.00,VWS V14.01,2013-03-04 13:00:00,
2013-03-04 08:05:00,31.2,21.9,29.58,WNW,301,5.0,9.0,68,0.00,,CLR,0.00,VWS V14.01,2013-03-04 13:05:00,
2013-03-04 08:10:00,31.4,22.1,29.58,West,262,8.0,8.0,68,0.00,,CLR,0.00,VWS V14.01,2013-03-04 13:10:00,
2013-03-04 08:15:00,31.6,22.6,29.58,West,281,2.0,11.0,69,0.00,,CLR,0.00,VWS V14.01,2013-03-04 13:15:00,
2013-03-04 08:20:00,31.9,22.5,29.58,West,278,2.0,7.0,68,0.00,,CLR,0.00,VWS V14.01,2013-03-04 13:20:00,
2013-03-04 08:25:00,32.1,22.0,29.58,WNW,286,3.0,13.0,66,0.00,,CLR,0.00,VWS V14.01,2013-03-04 13:25:00,
2013-03-04 08:30:00,32.3,22.2,29.58,West,263,7.0,10.0,66,0.00,,CLR,0.00,VWS V14.01,2013-03-04 13:30:00,
2013-03-04 08:35:00,32.3,22.2,29.58,WSW,246,8.0,10.0,66,0.00,,CLR,0.00,VWS V14.01,2013-03-04 13:35:00,
2013-03-04 08:40:00,32.6,22.5,29.57,SW,222,1.0,7.0,66,0.00,,CLR,0.00,VWS V14.01,2013-03-04 13:40:00,
2013-03-04 08:45:00,32.8,22.7,29.57,WNW,297,5.0,9.0,66,0.00,,CLR,0.00,VWS V14.01,2013-03-04 13:45:00,
2013-03-04 08:50:00,32.9,22.4,29.57,WSW,242,3.0,7.0,65,0.00,,CLR,0.00,VWS V14.01,2013-03-04 13:50:00,
2013-03-04 08:55:00,33.3,23.2,29.56,WNW,282,7.0,9.0,66,0.00,,CLR,0.00,VWS V14.01,2013-03-04 13:55:00,
2013-03-04 09:00:00,33.2,22.4,29.56,SW,233,6.0,11.0,64,0.00,,CLR,0.00,VWS V14.01,2013-03-04 14:00:00,
2013-03-04 09:05:00,32.9,22.4,29.56,WSW,243,2.0,9.0,65,0.00,,CLR,0.00,VWS V14.01,2013-03-04 14:05:00,
2013-03-04 09:10:00,33.2,23.1,29.56,South,187,4.0,6.0,66,0.00,,CLR,0.00,VWS V14.01,2013-03-04 14:10:00,
2013-03-04 09:15:00,33.2,22.4,29.56,WSW,251,3.0,13.0,64,0.00,,CLR,0.00,VWS V14.01,2013-03-04 14:15:00,
2013-03-04 09:20:00,33.1,22.3,29.56,WNW,296,7.0,11.0,64,0.00,,CLR,0.00,VWS V14.01,2013-03-04 14:20:00,
2013-03-04 09:25:00,33.5,22.6,29.56,NNW,337,2.0,8.0,64,0.00,,CLR,0.00,VWS V14.01,2013-03-04 14:25:00,
2013-03-04 09:30:00,33.7,22.8,29.56,West,263,9.0,11.0,64,0.00,,CLR,0.00,VWS V14.01,2013-03-04 14:30:00,
2013-03-04 09:35:00,33.9,22.6,29.56,WSW,248,7.0,11.0,63,0.00,,CLR,0.00,VWS V14.01,2013-03-04 14:35:00,
2013-03-04 09:40:00,33.8,22.9,29.57,WSW,257,4.0,12.0,64,0.00,,CLR,0.00,VWS V14.01,2013-03-04 14:40:00,
2013-03-04 09:45:00,33.8,22.5,29.56,NNE,28,3.0,12.0,63,0.00,,CLR,0.00,VWS V14.01,2013-03-04 14:45:00,
2013-03-04 09:50:00,33.9,22.6,29.56,NNW,348,2.0,10.0,63,0.00,,CLR,0.00,VWS V14.01,2013-03-04 14:50:00,
2013-03-04 09:55:00,33.9,22.3,29.56,West,260,4.0,11.0,62,0.00,,CLR,0.00,VWS V14.01,2013-03-04 14:55:00,
2013-03-04 10:00:00,34.3,22.6,29.57,WNW,283,4.0,12.0,62,0.00,,CLR,0.00,VWS V14.01,2013-03-04 15:00:00,
2013-03-04 10:05:00,34.7,23.0,29.57,West,270,2.0,10.0,62,0.00,,CLR,0.00,VWS V14.01,2013-03-04 15:05:00,
2013-03-04 10:10:00,34.8,23.1,29.57,West,279,5.0,10.0,62,0.00,,CLR,0.00,VWS V14.01,2013-03-04 15:10:00,
2013-03-04 10:15:00,35.1,23.8,29.56,ENE,76,2.0,7.0,63,0.00,,CLR,0.00,VWS V14.01,2013-03-04 15:15:00,
2013-03-04 10:20:00,35.5,23.4,29.57,NNW,345,6.0,12.0,61,0.00,,CLR,0.00,VWS V14.01,2013-03-04 15:20:00,
2013-03-04 10:25:00,35.7,22.8,29.57,WNW,287,4.0,12.0,59,0.00,,CLR,0.00,VWS V14.01,2013-03-04 15:25:00,
2013-03-04 10:30:00,36.0,23.1,29.56,North,8,4.0,8.0,59,0.00,,CLR,0.00,VWS V14.01,2013-03-04 15:30:00,
2013-03-04 10:35:00,35.6,23.1,29.56,WSW,248,4.0,12.0,60,0.00,,CLR,0.00,VWS V14.01,2013-03-04 15:35:00,
2013-03-04 10:40:00,35.9,23.0,29.56,WNW,288,11.0,11.0,59,0.00,,CLR,0.00,VWS V14.01,2013-03-04 15:40:00,
2013-03-04 10:45:00,36.2,22.9,29.56,SW,236,3.0,11.0,58,0.00,,CLR,0.00,VWS V14.01,2013-03-04 15:45:00,
2013-03-04 10:50:00,36.1,22.8,29.55,NNW,337,7.0,15.0,58,0.00,,CLR,0.00,VWS V14.01,2013-03-04 15:50:00,
2013-03-04 10:55:00,35.6,23.1,29.56,WSW,252,6.0,19.0,60,0.00,,CLR,0.00,VWS V14.01,2013-03-04 15:55:00,
2013-03-04 11:00:00,35.5,23.0,29.56,North,352,9.0,9.0,60,0.00,,CLR,0.00,VWS V14.01,2013-03-04 16:00:00,
2013-03-04 11:05:00,35.4,22.9,29.56,WNW,284,3.0,11.0,60,0.00,,CLR,0.00,VWS V14.01,2013-03-04 16:05:00,
2013-03-04 11:10:00,35.3,22.8,29.56,West,274,5.0,10.0,60,0.00,,CLR,0.00,VWS V14.01,2013-03-04 16:10:00,
2013-03-04 11:15:00,35.3,23.2,29.56,WNW,285,0.0,8.0,61,0.00,,CLR,0.00,VWS V14.01,2013-03-04 16:15:00,
2013-03-04 11:20:00,35.4,22.9,29.56,SW,233,4.0,9.0,60,0.00,,CLR,0.00,VWS V14.01,2013-03-04 16:20:00,
2013-03-04 11:25:00,35.6,23.1,29.56,WNW,301,5.0,10.0,60,0.00,,CLR,0.00,VWS V14.01,2013-03-04 16:25:00,
2013-03-04 11:30:00,36.0,23.5,29.56,NNE,25,5.0,9.0,60,0.00,,CLR,0.00,VWS V14.01,2013-03-04 16:30:00,
2013-03-04 11:35:00,36.0,23.5,29.56,NW,321,7.0,10.0,60,0.00,,CLR,0.00,VWS V14.01,2013-03-04 16:35:00,
2013-03-04 11:40:00,35.7,23.2,29.56,WNW,297,3.0,9.0,60,0.00,,CLR,0.00,VWS V14.01,2013-03-04 16:40:00,
2013-03-04 11:45:00,35.9,23.4,29.56,North,360,5.0,12.0,60,0.00,,CLR,0.00,VWS V14.01,2013-03-04 16:45:00,
2013-03-04 11:50:00,35.7,22.8,29.56,North,354,3.0,13.0,59,0.00,,CLR,0.00,VWS V14.01,2013-03-04 16:50:00,
2013-03-04 11:55:00,35.7,23.2,29.56,NW,309,6.0,12.0,60,0.00,,CLR,0.00,VWS V14.01,2013-03-04 16:55:00,
2013-03-04 12:00:00,35.8,23.3,29.55,West,267,5.0,9.0,60,0.00,,CLR,0.00,VWS V14.01,2013-03-04 17:00:00,
2013-03-04 12:05:00,36.1,23.6,29.55,WNW,294,3.0,8.0,60,0.00,,CLR,0.00,VWS V14.01,2013-03-04 17:05:00,
2013-03-04 12:10:00,36.7,23.7,29.55,WSW,245,3.0,9.0,59,0.00,,CLR,0.00,VWS V14.01,2013-03-04 17:10:00,
2013-03-04 12:15:00,37.0,23.6,29.55,NNE,20,2.0,8.0,58,0.00,,CLR,0.00,VWS V14.01,2013-03-04 17:15:00,
2013-03-04 12:20:00,37.9,24.5,29.55,NNE,20,5.0,9.0,58,0.00,,CLR,0.00,VWS V14.01,2013-03-04 17:20:00,
2013-03-04 12:25:00,37.8,23.5,29.55,North,3,7.0,16.0,56,0.00,,CLR,0.00,VWS V14.01,2013-03-04 17:25:00,
2013-03-04 12:30:00,38.1,24.2,29.55,NNE,33,3.0,11.0,57,0.00,,CLR,0.00,VWS V14.01,2013-03-04 17:30:00,
2013-03-04 12:35:00,38.0,24.1,29.54,NE,39,5.0,7.0,57,0.00,,CLR,0.00,VWS V14.01,2013-03-04 17:35:00,
2013-03-04 12:40:00,37.6,23.8,29.54,SSW,208,2.0,7.0,57,0.00,,CLR,0.00,VWS V14.01,2013-03-04 17:40:00,
2013-03-04 12:45:00,37.6,23.8,29.54,North,350,2.0,8.0,57,0.00,,CLR,0.00,VWS V14.01,2013-03-04 17:45:00,
2013-03-04 12:50:00,37.8,24.0,29.54,SW,233,4.0,5.0,57,0.00,,CLR,0.00,VWS V14.01,2013-03-04 17:50:00,
2013-03-04 12:55:00,38.1,24.2,29.54,North,6,8.0,9.0,57,0.00,,CLR,0.00,VWS V14.01,2013-03-04 17:55:00,
2013-03-04 13:00:00,37.8,24.0,29.54,WNW,285,1.0,9.0,57,0.00,,CLR,0.00,VWS V14.01,2013-03-04 18:00:00,
2013-03-04 13:05:00,37.8,24.0,29.54,West,276,1.0,9.0,57,0.00,,CLR,0.00,VWS V14.01,2013-03-04 18:05:00,
2013-03-04 13:10:00,37.7,23.9,29.54,West,261,6.0,10.0,57,0.00,,CLR,0.00,VWS V14.01,2013-03-04 18:10:00,
2013-03-04 13:15:00,37.7,24.3,29.54,NNW,342,2.0,8.0,58,0.00,,CLR,0.00,VWS V14.01,2013-03-04 18:15:00,
2013-03-04 13:20:00,37.9,24.5,29.54,WNW,291,7.0,9.0,58,0.00,,CLR,0.00,VWS V14.01,2013-03-04 18:20:00,
2013-03-04 13:25:00,37.9,24.9,29.53,WSW,257,1.0,14.0,59,0.00,,CLR,0.00,VWS V14.01,2013-03-04 18:25:00,
2013-03-04 13:29:00,38.5,25.4,29.54,West,281,3.0,4.0,59,0.00,,CLR,0.00,VWS V14.01,2013-03-04 18:29:00,
2013-03-04 13:30:00,36.9,25.5,29.54,West,273,6.0,8.0,63,0.00,,CLR,0.00,VWS V14.01,2013-03-04 18:30:00,
2013-03-04 13:34:00,38.4,24.9,29.54,West,259,7.0,18.0,58,0.00,,CLR,0.00,VWS V14.01,2013-03-04 18:34:00,
2013-03-04 13:39:00,38.0,25.0,29.54,West,266,3.0,14.0,59,0.00,,CLR,0.00,VWS V14.01,2013-03-04 18:39:00,
2013-03-04 13:44:00,38.1,25.1,29.53,NW,318,4.0,9.0,59,0.00,,CLR,0.00,VWS V14.01,2013-03-04 18:44:00,
2013-03-04 13:45:00,36.9,25.5,29.55,WSW,250,8.0,9.0,63,0.00,,CLR,0.00,VWS V14.01,2013-03-04 18:45:00,
2013-03-04 13:49:00,37.9,25.3,29.53,WSW,245,6.0,9.0,60,0.00,,CLR,0.00,VWS V14.01,2013-03-04 18:49:00,
2013-03-04 13:54:00,37.7,25.5,29.54,NNW,328,12.0,12.0,61,0.00,,CLR,0.00,VWS V14.01,2013-03-04 18:54:00,
2013-03-04 13:59:00,37.7,25.5,29.53,NNW,345,1.0,9.0,61,0.00,,CLR,0.00,VWS V14.01,2013-03-04 18:59:00,
2013-03-04 14:00:00,36.6,25.6,29.55,North,11,7.0,9.0,64,0.00,,CLR,0.00,VWS V14.01,2013-03-04 19:00:00,
2013-03-04 14:04:00,37.9,24.9,29.53,SW,224,4.0,10.0,59,0.00,,CLR,0.00,VWS V14.01,2013-03-04 19:04:00,
2013-03-04 14:09:00,38.0,25.4,29.54,SW,221,2.0,15.0,60,0.00,,CLR,0.00,VWS V14.01,2013-03-04 19:09:00,
2013-03-04 14:14:00,37.9,25.3,29.54,WNW,291,4.0,10.0,60,0.00,,CLR,0.00,VWS V14.01,2013-03-04 19:14:00,
2013-03-04 14:15:00,35.8,25.9,29.55,NNW,328,3.0,12.0,67,0.00,,CLR,0.00,VWS V14.01,2013-03-04 19:15:00,
2013-03-04 14:19:00,37.5,25.3,29.54,WSW,246,3.0,12.0,61,0.00,,CLR,0.00,VWS V14.01,2013-03-04 19:19:00,
2013-03-04 14:24:00,37.1,25.7,29.54,SW,225,2.0,8.0,63,0.00,,CLR,0.00,VWS V14.01,2013-03-04 19:24:00,
2013-03-04 14:29:00,36.9,25.5,29.54,NNW,328,6.0,7.0,63,0.00,,CLR,0.00,VWS V14.01,2013-03-04 19:29:00,
2013-03-04 14:30:00,35.9,26.0,29.55,NNW,336,10.0,11.0,67,0.00,,CLR,0.00,VWS V14.01,2013-03-04 19:30:00,
2013-03-04 14:34:00,36.7,25.3,29.54,SSW,201,3.0,8.0,63,0.00,,CLR,0.00,VWS V14.01,2013-03-04 19:34:00,
2013-03-04 14:39:00,36.8,25.8,29.54,WNW,294,1.0,8.0,64,0.00,,CLR,0.00,VWS V14.01,2013-03-04 19:39:00,
2013-03-04 14:44:00,36.9,25.5,29.55,WSW,242,9.0,9.0,63,0.00,,CLR,0.00,VWS V14.01,2013-03-04 19:44:00,
2013-03-04 14:45:00,36.0,26.1,29.55,NE,45,3.0,7.0,67,0.00,,CLR,0.00,VWS V14.01,2013-03-04 19:45:00,
2013-03-04 14:49:00,36.8,25.8,29.55,WSW,243,6.0,9.0,64,0.00,,CLR,0.00,VWS V14.01,2013-03-04 19:49:00,
2013-03-04 14:54:00,36.8,25.4,29.55,NNW,345,8.0,11.0,63,0.00,,CLR,0.00,VWS V14.01,2013-03-04 19:54:00,
2013-03-04 14:59:00,36.7,25.7,29.55,WSW,248,2.0,8.0,64,0.00,,CLR,0.00,VWS V14.01,2013-03-04 19:59:00,
2013-03-04 15:00:00,36.1,26.2,29.55,WNW,285,3.0,9.0,67,0.00,,CLR,0.00,VWS V14.01,2013-03-04 20:00:00,
2013-03-04 15:04:00,36.3,25.7,29.55,NW,316,4.0,12.0,65,0.00,,CLR,0.00,VWS V14.01,2013-03-04 20:04:00,
2013-03-04 15:09:00,36.1,25.5,29.55,WSW,242,7.0,16.0,65,0.00,,CLR,0.00,VWS V14.01,2013-03-04 20:09:00,
2013-03-04 15:14:00,35.9,25.7,29.55,WNW,284,6.0,12.0,66,0.00,,CLR,0.00,VWS V14.01,2013-03-04 20:14:00,
2013-03-04 15:15:00,36.1,26.2,29.56,NNW,341,2.0,10.0,67,0.00,,CLR,0.00,VWS V14.01,2013-03-04 20:15:00,
2013-03-04 15:20:00,35.7,26.2,29.55,WSW,249,5.0,9.0,68,0.00,,CLR,0.00,VWS V14.01,2013-03-04 20:20:00,
2013-03-04 15:24:00,35.8,25.9,29.55,SSW,211,2.0,11.0,67,0.00,,CLR,0.00,VWS V14.01,2013-03-04 20:24:00,
2013-03-04 15:29:00,35.9,26.0,29.55,NNE,20,4.0,8.0,67,0.00,,CLR,0.00,VWS V14.01,2013-03-04 20:29:00,
2013-03-04 15:30:00,35.8,26.3,29.56,WSW,252,1.0,9.0,68,0.00,,CLR,0.00,VWS V14.01,2013-03-04 20:30:00,
2013-03-04 15:34:00,35.9,26.4,29.55,NW,314,2.0,13.0,68,0.00,,CLR,0.00,VWS V14.01,2013-03-04 20:34:00,
2013-03-04 15:39:00,35.9,26.4,29.55,NW,325,6.0,13.0,68,0.00,,CLR,0.00,VWS V14.01,2013-03-04 20:39:00,
2013-03-04 15:44:00,36.0,26.1,29.55,SSW,212,2.0,7.0,67,0.00,,CLR,0.00,VWS V14.01,2013-03-04 20:44:00,
2013-03-04 15:45:00,35.2,26.8,29.57,NW,318,4.0,9.0,71,0.00,,CLR,0.00,VWS V14.01,2013-03-04 20:45:00,
2013-03-04 15:49:00,36.0,26.1,29.55,NNE,18,3.0,11.0,67,0.00,,CLR,0.00,VWS V14.01,2013-03-04 20:49:00,
2013-03-04 15:54:00,36.1,26.2,29.55,ENE,62,6.0,9.0,67,0.00,,CLR,0.00,VWS V14.01,2013-03-04 20:54:00,
2013-03-04 15:59:00,36.1,26.2,29.56,NW,304,3.0,9.0,67,0.00,,CLR,0.00,VWS V14.01,2013-03-04 20:59:00,
2013-03-04 16:00:00,34.6,27.2,29.58,West,276,1.0,9.0,74,0.00,,CLR,0.00,VWS V14.01,2013-03-04 21:00:00,
2013-03-04 16:04:00,36.3,26.4,29.56,SW,224,4.0,5.0,67,0.00,,CLR,0.00,VWS V14.01,2013-03-04 21:04:00,
2013-03-04 16:09:00,36.3,26.0,29.56,WNW,296,5.0,8.0,66,0.00,,CLR,0.00,VWS V14.01,2013-03-04 21:09:00,
2013-03-04 16:14:00,36.1,26.2,29.56,WNW,285,4.0,8.0,67,0.00,,CLR,0.00,VWS V14.01,2013-03-04 21:14:00,
2013-03-04 16:15:00,34.2,27.1,29.58,NNW,343,3.0,12.0,75,0.00,,CLR,0.00,VWS V14.01,2013-03-04 21:15:00,
2013-03-04 16:19:00,36.0,25.8,29.56,NW,311,5.0,11.0,66,0.00,,CLR,0.00,VWS V14.01,2013-03-04 21:19:00,
2013-03-04 16:24:00,36.0,26.1,29.56,WNW,303,2.0,5.0,67,0.00,,CLR,0.00,VWS V14.01,2013-03-04 21:24:00,
2013-03-04 16:29:00,35.9,26.4,29.56,WNW,297,1.0,9.0,68,0.00,,CLR,0.00,VWS V14.01,2013-03-04 21:29:00,
2013-03-04 16:30:00,34.0,27.2,29.59,North,357,5.0,5.0,76,0.00,,CLR,0.00,VWS V14.01,2013-03-04 21:30:00,
2013-03-04 16:35:00,35.7,26.2,29.56,North,352,7.0,7.0,68,0.00,,CLR,0.00,VWS V14.01,2013-03-04 21:35:00,
2013-03-04 16:40:00,35.5,26.7,29.57,East,87,2.0,14.0,70,0.00,,CLR,0.00,VWS V14.01,2013-03-04 21:40:00,
2013-03-04 16:45:00,35.2,26.8,29.57,NE,41,6.0,9.0,71,0.00,,CLR,0.00,VWS V14.01,2013-03-04 21:45:00,
2013-03-04 16:50:00,35.1,26.7,29.57,NE,53,4.0,10.0,71,0.00,,CLR,0.00,VWS V14.01,2013-03-04 21:50:00,
2013-03-04 16:55:00,34.8,26.7,29.57,WNW,285,4.0,6.0,72,0.00,,CLR,0.00,VWS V14.01,2013-03-04 21:55:00,
2013-03-04 17:00:00,34.6,26.9,29.57,NNW,328,5.0,9.0,73,0.00,,CLR,0.00,VWS V14.01,2013-03-04 22:00:00,
2013-03-04 17:05:00,34.4,27.0,29.58,NW,308,3.0,8.0,74,0.00,,CLR,0.00,VWS V14.01,2013-03-04 22:05:00,
2013-03-04 17:10:00,34.4,27.3,29.58,NNE,20,4.0,7.0,75,0.00,,CLR,0.00,VWS V14.01,2013-03-04 22:10:00,
2013-03-04 17:15:00,34.3,27.2,29.58,ESE,110,0.0,8.0,75,0.00,,CLR,0.00,VWS V14.01,2013-03-04 22:15:00,
2013-03-04 17:20:00,34.1,27.3,29.58,NNE,16,2.0,10.0,76,0.00,,CLR,0.00,VWS V14.01,2013-03-04 22:20:00,
2013-03-04 17:25:00,34.1,27.3,29.59,NW,315,1.0,6.0,76,0.00,,CLR,0.00,VWS V14.01,2013-03-04 22:25:00,
2013-03-04 17:30:00,34.0,27.6,29.59,WNW,289,1.0,2.0,77,0.00,,CLR,0.00,VWS V14.01,2013-03-04 22:30:00,
2013-03-04 17:35:00,33.9,27.5,29.59,NNW,342,1.0,5.0,77,0.00,,CLR,0.00,VWS V14.01,2013-03-04 22:35:00,
2013-03-04 17:40:00,33.9,27.5,29.60,NE,52,1.0,3.0,77,0.00,,CLR,0.00,VWS V14.01,2013-03-04 22:40:00,
2013-03-04 17:45:00,33.8,27.4,29.60,NNW,329,4.0,4.0,77,0.00,,CLR,0.00,VWS V14.01,2013-03-04 22:45:00,
2013-03-04 17:50:00,33.6,27.5,29.60,SSW,210,1.0,6.0,78,0.00,,CLR,0.00,VWS V14.01,2013-03-04 22:50:00,
2013-03-04 17:55:00,33.5,27.4,29.61,East,79,1.0,5.0,78,0.00,,CLR,0.00,VWS V14.01,2013-03-04 22:55:00,
2013-03-04 18:00:00,33.3,27.2,29.61,WNW,297,6.0,8.0,78,0.00,,CLR,0.00,VWS V14.01,2013-03-04 23:00:00,
2013-03-04 18:05:00,33.2,27.1,29.61,NNE,16,4.0,8.0,78,0.00,,CLR,0.00,VWS V14.01,2013-03-04 23:05:00,
2013-03-04 18:10:00,33.1,27.0,29.61,NNW,342,5.0,6.0,78,0.00,,CLR,0.00,VWS V14.01,2013-03-04 23:10:00,
2013-03-04 18:15:00,33.0,26.9,29.62,NE,45,0.0,5.0,78,0.00,,CLR,0.00,VWS V14.01,2013-03-04 23:15:00,
2013-03-04 18:20:00,33.0,27.2,29.62,North,357,3.0,5.0,79,0.00,,CLR,0.00,VWS V14.01,2013-03-04 23:20:00,
2013-03-04 18:25:00,32.9,27.1,29.62,West,266,3.0,9.0,79,0.00,,CLR,0.00,VWS V14.01,2013-03-04 23:25:00,
2013-03-04 18:30:00,32.8,27.0,29.62,West,270,1.0,4.0,79,0.00,,CLR,0.00,VWS V14.01,2013-03-04 23:30:00,
2013-03-04 18:35:00,32.7,26.9,29.62,North,351,3.0,12.0,79,0.00,,CLR,0.00,VWS V14.01,2013-03-04 23:35:00,
2013-03-04 18:40:00,32.7,27.2,29.62,NW,318,2.0,4.0,80,0.00,,CLR,0.00,VWS V14.01,2013-03-04 23:40:00,
2013-03-04 18:45:00,32.6,27.1,29.63,SW,236,1.0,4.0,80,0.00,,CLR,0.00,VWS V14.01,2013-03-04 23:45:00,
2013-03-04 18:50:00,32.6,27.1,29.63,NW,304,4.0,7.0,80,0.00,,CLR,0.00,VWS V14.01,2013-03-04 23:50:00,
2013-03-04 18:55:00,32.5,27.0,29.62,NNE,15,3.0,6.0,80,0.00,,CLR,0.00,VWS V14.01,2013-03-04 23:55:00,
2013-03-04 19:00:00,32.6,27.1,29.62,NW,322,7.0,12.0,80,0.00,,CLR,0.00,VWS V14.01,2013-03-05 00:00:00,
2013-03-04 19:05:00,32.6,26.8,29.63,NNW,333,3.0,8.0,79,0.00,,CLR,0.00,VWS V14.01,2013-03-05 00:05:00,
2013-03-04 19:10:00,32.6,26.8,29.63,WSW,249,2.0,8.0,79,0.00,,CLR,0.00,VWS V14.01,2013-03-05 00:10:00,
2013-03-04 19:15:00,32.6,26.8,29.63,WSW,252,7.0,7.0,79,0.00,,CLR,0.00,VWS V14.01,2013-03-05 00:15:00,
2013-03-04 19:20:00,32.6,26.8,29.63,NNW,334,3.0,12.0,79,0.00,,CLR,0.00,VWS V14.01,2013-03-05 00:20:00,
2013-03-04 19:25:00,32.6,26.8,29.63,WNW,293,2.0,8.0,79,0.00,,CLR,0.00,VWS V14.01,2013-03-05 00:25:00,
2013-03-04 19:30:00,32.6,26.5,29.63,WNW,301,2.0,11.0,78,0.00,,CLR,0.00,VWS V14.01,2013-03-05 00:30:00,
2013-03-04 19:35:00,32.6,26.5,29.63,NNW,342,6.0,13.0,78,0.00,,CLR,0.00,VWS V14.01,2013-03-05 00:35:00,
2013-03-04 19:40:00,32.7,26.6,29.64,North,351,3.0,8.0,78,0.00,,CLR,0.00,VWS V14.01,2013-03-05 00:40:00,
2013-03-04 19:45:00,32.7,26.6,29.64,WNW,297,6.0,9.0,78,0.00,,CLR,0.00,VWS V14.01,2013-03-05 00:45:00,
2013-03-04 19:50:00,32.6,26.5,29.64,NNW,338,6.0,9.0,78,0.00,,CLR,0.00,VWS V14.01,2013-03-05 00:50:00,
2013-03-04 19:55:00,32.7,26.6,29.64,NNE,30,1.0,7.0,78,0.00,,CLR,0.00,VWS V14.01,2013-03-05 00:55:00,
2013-03-04 20:00:00,32.7,26.3,29.64,NNW,348,4.0,8.0,77,0.00,,CLR,0.00,VWS V14.01,2013-03-05 01:00:00,
2013-03-04 20:05:00,32.8,26.1,29.64,WNW,291,5.0,9.0,76,0.00,,CLR,0.00,VWS V14.01,2013-03-05 01:05:00,
2013-03-04 20:10:00,32.8,26.1,29.65,NE,39,6.0,7.0,76,0.00,,CLR,0.00,VWS V14.01,2013-03-05 01:10:00,
2013-03-04 20:15:00,32.8,25.8,29.65,NE,46,4.0,9.0,75,0.00,,CLR,0.00,VWS V14.01,2013-03-05 01:15:00,
2013-03-04 20:20:00,32.9,25.5,29.65,NNW,345,3.0,9.0,74,0.00,,CLR,0.00,VWS V14.01,2013-03-05 01:20:00,
2013-03-04 20:25:00,32.9,25.5,29.65,NNW,338,4.0,7.0,74,0.00,,CLR,0.00,VWS V14.01,2013-03-05 01:25:00,
2013-03-04 20:30:00,32.9,25.5,29.65,NNW,335,3.0,17.0,74,0.00,,CLR,0.00,VWS V14.01,2013-03-05 01:30:00,
2013-03-04 20:35:00,32.9,25.2,29.65,North,353,10.0,11.0,73,0.00,,CLR,0.00,VWS V14.01,2013-03-05 01:35:00,
2013-03-04 20:40:00,32.9,25.2,29.65,WNW,301,2.0,9.0,73,0.00,,CLR,0.00,VWS V14.01,2013-03-05 01:40:00,
2013-03-04 20:45:00,32.8,25.1,29.66,NNE,27,2.0,6.0,73,0.00,,CLR,0.00,VWS V14.01,2013-03-05 01:45:00,
2013-03-04 20:50:00,32.8,25.1,29.66,SW,219,2.0,9.0,73,0.00,,CLR,0.00,VWS V14.01,2013-03-05 01:50:00,
2013-03-04 20:55:00,32.8,25.1,29.66,WNW,287,1.0,9.0,73,0.00,,CLR,0.00,VWS V14.01,2013-03-05 01:55:00,
2013-03-04 21:00:00,32.7,25.0,29.66,North,6,1.0,10.0,73,0.00,,CLR,0.00,VWS V14.01,2013-03-05 02:00:00,
2013-03-04 21:05:00,32.6,24.9,29.66,NE,46,8.0,9.0,73,0.00,,CLR,0.00,VWS V14.01,2013-03-05 02:05:00,
2013-03-04 21:10:00,32.5,24.8,29.67,NNW,335,1.0,9.0,73,0.00,,CLR,0.00,VWS V14.01,2013-03-05 02:10:00,
2013-03-04 21:15:00,32.5,24.8,29.67,NE,45,4.0,13.0,73,0.00,,CLR,0.00,VWS V14.01,2013-03-05 02:15:00,
2013-03-04 21:20:00,32.4,24.7,29.67,NNE,18,5.0,12.0,73,0.00,,CLR,0.00,VWS V14.01,2013-03-05 02:20:00,
2013-03-04 21:25:00,32.3,24.6,29.67,North,9,3.0,7.0,73,0.00,,CLR,0.00,VWS V14.01,2013-03-05 02:25:00,
2013-03-04 21:30:00,32.3,24.6,29.67,ENE,67,6.0,8.0,73,0.00,,CLR,0.00,VWS V14.01,2013-03-05 02:30:00,
2013-03-04 21:35:00,32.2,24.5,29.67,North,10,5.0,5.0,73,0.00,,CLR,0.00,VWS V14.01,2013-03-05 02:35:00,
2013-03-04 21:40:00,32.2,24.5,29.67,NE,37,3.0,10.0,73,0.00,,CLR,0.00,VWS V14.01,2013-03-05 02:40:00,
2013-03-04 21:45:00,32.1,24.4,29.67,WNW,294,9.0,11.0,73,0.00,,CLR,0.00,VWS V14.01,2013-03-05 02:45:00,
2013-03-04 21:50:00,32.1,24.4,29.68,WNW,284,2.0,6.0,73,0.00,,CLR,0.00,VWS V14.01,2013-03-05 02:50:00,
2013-03-04 21:55:00,32.1,24.4,29.68,NE,38,3.0,9.0,73,0.00,,CLR,0.00,VWS V14.01,2013-03-05 02:55:00,
2013-03-04 22:00:00,32.0,24.7,29.68,NNW,342,8.0,8.0,74,0.00,,CLR,0.00,VWS V14.01,2013-03-05 03:00:00,
2013-03-04 22:05:00,31.9,24.6,29.68,NNW,328,4.0,10.0,74,0.00,,CLR,0.00,VWS V14.01,2013-03-05 03:05:00,
2013-03-04 22:10:00,31.9,24.6,29.68,NW,307,4.0,5.0,74,0.00,,CLR,0.00,VWS V14.01,2013-03-05 03:10:00,
2013-03-04 22:15:00,31.8,24.5,29.68,SSW,195,1.0,10.0,74,0.00,,CLR,0.00,VWS V14.01,2013-03-05 03:15:00,
2013-03-04 22:20:00,31.8,24.5,29.68,NNW,342,4.0,7.0,74,0.00,,CLR,0.00,VWS V14.01,2013-03-05 03:20:00,
2013-03-04 22:25:00,31.8,24.5,29.68,NNW,337,2.0,9.0,74,0.00,,CLR,0.00,VWS V14.01,2013-03-05 03:25:00,
2013-03-04 22:30:00,31.8,24.5,29.68,NNW,339,4.0,9.0,74,0.00,,CLR,0.00,VWS V14.01,2013-03-05 03:30:00,
2013-03-04 22:35:00,31.7,24.4,29.68,WNW,297,2.0,12.0,74,0.00,,CLR,0.00,VWS V14.01,2013-03-05 03:35:00,
2013-03-04 22:40:00,31.6,24.3,29.68,WNW,294,1.0,7.0,74,0.00,,CLR,0.00,VWS V14.01,2013-03-05 03:40:00,
2013-03-04 22:45:00,31.6,24.3,29.68,NE,43,6.0,7.0,74,0.00,,CLR,0.00,VWS V14.01,2013-03-05 03:45:00,
2013-03-04 22:50:00,31.4,24.1,29.69,NW,307,5.0,9.0,74,0.00,,CLR,0.00,VWS V14.01,2013-03-05 03:50:00,
2013-03-04 22:55:00,31.3,24.3,29.69,NNE,30,4.0,13.0,75,0.00,,CLR,0.00,VWS V14.01,2013-03-05 03:55:00,
2013-03-04 23:00:00,31.2,24.2,29.69,NW,308,3.0,10.0,75,0.00,,CLR,0.00,VWS V14.01,2013-03-05 04:00:00,
2013-03-04 23:05:00,31.0,24.0,29.69,NNE,30,2.0,7.0,75,0.00,,CLR,0.00,VWS V14.01,2013-03-05 04:05:00,
2013-03-04 23:10:00,30.8,23.8,29.69,NNW,348,2.0,6.0,75,0.00,,CLR,0.00,VWS V14.01,2013-03-05 04:10:00,
2013-03-04 23:15:00,30.7,23.7,29.69,SW,229,7.0,8.0,75,0.00,,CLR,0.00,VWS V14.01,2013-03-05 04:15:00,
2013-03-04 23:20:00,30.8,23.8,29.69,West,273,3.0,8.0,75,0.00,,CLR,0.00,VWS V14.01,2013-03-05 04:20:00,
2013-03-04 23:25:00,30.8,23.8,29.69,NW,316,2.0,15.0,75,0.00,,CLR,0.00,VWS V14.01,2013-03-05 04:25:00,
2013-03-04 23:30:00,30.8,23.5,29.70,WNW,291,6.0,8.0,74,0.00,,CLR,0.00,VWS V14.01,2013-03-05 04:30:00,
2013-03-04 23:35:00,30.8,23.5,29.70,North,10,5.0,9.0,74,0.00,,CLR,0.00,VWS V14.01,2013-03-05 04:35:00,
2013-03-04 23:40:00,30.8,23.8,29.70,West,266,1.0,7.0,75,0.00,,CLR,0.00,VWS V14.01,2013-03-05 04:40:00,
2013-03-04 23:45:00,30.8,23.5,29.70,WSW,255,6.0,10.0,74,0.00,,CLR,0.00,VWS V14.01,2013-03-05 04:45:00,
2013-03-04 23:50:00,30.8,23.5,29.70,NNE,18,6.0,8.0,74,0.00,,CLR,0.00,VWS V14.01,2013-03-05 04:50:00,
2013-03-04 23:55:00,30.8,23.5,29.70,NE,39,2.0,10.0,74,0.00,,CLR,0.00,VWS V14.01,2013-03-05 04:55:00,